SKYNET 5A

Last updated on Oct. 21, 2020, 5:57 a.m. UTC

1 30794U 07007B   20294.83487325 -.00000283  00000-0  00000-0 0  9998
2 30794   0.8594  90.9935 0003626 123.0405 211.4991  1.00272864 49985
UTC
Height (km)
Latitude
Longitude
Inclination
Orbital Period
UTC large
Height (km)
Speed (km/s)
/
Latitude / Longitude
Inclination (degrees)
Orbital Period (minutes)
Azimuth
Elevation
Range (km)
Doppler Factor
iOS Compass Heading
iOS Angle

Next 30 passes for location: Hong Kong

Rise time Rise Azimuth (degrees) Set time Set Azimuth (degrees) Duration Max altitude (degrees)

No matching passes for this satellites